Index of /wp-hr-content/uploads/2020/09/

NameLast ModifiedSize
UpParent Directory
File20-1083-DOA-Response-to-Barnett-KUAM-9-14-2020-FOIA-HRD-20-1083-1.pdf2020-09-17 06:08 3311k
File20-1083-DOA-Response-to-Barnett-KUAM-9-14-2020-FOIA-HRD-20-1083-2.pdf2020-09-17 06:08 3311k
File20-1083-DOA-Response-to-Barnett-KUAM-9-14-2020-FOIA-HRD-20-1083.pdf2020-09-17 06:08 3311k
FileADMINISTRATIVE-ASSISTANT-DEPT-DOA115-20.pdf2020-09-25 05:42 107k
FileADMINISTRATIVE-ASSISTANT-OPEN-DOA114-20.pdf2020-09-25 05:42 108k
FileAUDITOR-I-OPEN-DOA112-20.pdf2020-09-25 05:42 111k
FileBIOLOGIST-III-OPEN-DOA116-20.pdf2020-09-25 05:42 128k
FileBUILDING-INSPECTOR-I-OPEN-DOA117-20.pdf2020-09-25 05:42 105k
FileCLAIMS-SPECIALIST-II-OPEN-DOA120-20.pdf2020-09-25 05:42 106k
FileCOMPLIANCE-INSPECTOR-I-OPEN-DOA119-20.pdf2020-09-25 05:42 108k
FileCONSERVATION-OFFICER-II-DEPT-DOA121-20.pdf2020-09-25 05:42 153k
FileDOA-CIRCULAR-2020-020-FAMILY-FIRST-CORONAVIRUS-RESPONSE-ACT-FMLA-FILLABLE.pdf2020-09-17 06:19 166k
FileDOA-Circular-2020-026-GHI-OE.pdf2020-09-10 06:03 154k
FileDOA-Circular-No.-2020-028-GLI-OE.pdf2020-09-10 06:03 1204k
FileFY21-Aetna-Brochure.pdf2020-09-10 06:03 1683k
FileFY21-Aetna-Provider-Directory.pdf2020-09-10 06:03 1599k
FileFY21-Enrollment-Change-of-Status-Form.pdf2020-09-10 06:03 124k
[IMG]Guam-Covid-Alert_Social-Media-1024x1024.png2021-09-30 11:22 208k
[IMG]Guam-Covid-Alert_Social-Media-1024x1024.png.webp2021-09-30 11:22 52k
[IMG]Guam-Covid-Alert_Social-Media-1080x675.png2021-09-30 11:22 49k
[IMG]Guam-Covid-Alert_Social-Media-1080x675.png.webp2021-09-30 11:22 27k
[IMG]Guam-Covid-Alert_Social-Media-150x150.png2021-09-30 11:22 18k
[IMG]Guam-Covid-Alert_Social-Media-150x150.png.webp2021-09-30 11:22 5k
[IMG]Guam-Covid-Alert_Social-Media-300x300.png2021-09-30 11:22 44k
[IMG]Guam-Covid-Alert_Social-Media-300x300.png.webp2021-09-30 11:22 13k
[IMG]Guam-Covid-Alert_Social-Media-400x250.png2021-09-30 11:22 36k
[IMG]Guam-Covid-Alert_Social-Media-400x250.png.webp2021-09-30 11:22 10k
[IMG]Guam-Covid-Alert_Social-Media-400x284.png2021-09-30 11:22 56k
[IMG]Guam-Covid-Alert_Social-Media-400x284.png.webp2021-09-30 11:22 12k
[IMG]Guam-Covid-Alert_Social-Media-510x382.png2021-09-30 11:22 95k
[IMG]Guam-Covid-Alert_Social-Media-510x382.png.webp2021-09-30 11:22 18k
[IMG]Guam-Covid-Alert_Social-Media-768x768.png2021-09-30 11:22 137k
[IMG]Guam-Covid-Alert_Social-Media-768x768.png.webp2021-09-30 11:22 40k
[IMG]Guam-Covid-Alert_Social-Media.png2021-09-30 11:22 125k
[IMG]Guam-Covid-Alert_Social-Media.png.webp2021-09-30 11:22 59k
FileHEAVY-EQUIPMENT-MECHANIC-II-OPEN-DOA113-20.pdf2020-09-25 05:42 106k
FileHRD-No.-20-1061-4-Sep-20.pdf2020-09-08 00:57 11726k
FileNUTRITION-ASSISTANT-I-OPEN-DOA123-20.pdf2020-09-25 05:42 119k
FilePSYCHIATRIC-SOCIAL-WORKER-II-DEPT-DOA122-20.pdf2020-09-25 05:42 117k
FilePSYCHIATRIC-TECHNICIAN-II-DEPT-DOA118-20.pdf2020-09-25 05:42 113k
FileSIC-ACTIVE-FORM-interactive-form-090420.pdf2020-09-10 06:03 1421k
FileSIC-HIGHLIGHT-BROCHURE-2016-1.pdf2020-09-10 06:03 233k
FileSIC-MEDICAL-HISTORY-STATEMENT-EOI-fillable.pdf2020-09-10 06:03 191k
Proudly Served by LiteSpeed Web Server at hr.doa.guam.gov Port 443